RH
63 54 52 92 86 88 94 95 93 96 95 98 99 100 100 100 92 85 88 95 100 100 99 98 98 93 93 82 70 75 81 86 84 73 65 66 61 62 69 78 83 83 88 97
62 38 47 56 72 73 87 94 93 83 95 99 99 100 95 71 63 68 75 82 88 99 100 100 99 100 98 98 94 76 63 59 66 81 85 80 63 54 47 45 60 81 82 80
64 44 52 70 96 93 86 93 94 92 98 95 94 82 74 66 66 67 70 80 87 95 96 96 96 98 98 97 98 96 94 91 73 74 66 79 81 76 70 60 55 55 60 52
70 51 79 78 64 95 86 92 94 86 97 96 70 70 75 76 74 76 77 79 83 86 91 96 85 77 91 74 95 91 86 90 86 63 72 67 70 72 70 61 65 65 52 44
78 65 48 60 74 96 89 94 78 66 58 55 74 57 71 80 82 84 85 85 76 72 64 56 72 84 88 62 52 46 45 60 62 56 51 54 54 63 66 70 59 51 52 46
83 77 82 71 66 72 98 83 76 59 60 62 59 58 69 83 87 90 84 89 76 72 72 62 59 60 60 64 69 61 53 51 51 55 55 53 46 52 38 54 52 58 56 50
91 90 74 61 69 61 67 85 76 63 69 68 66 79 86 88 80 75 80 71 66 67 72 79 70 62 60 60 56 58 57 54 52 50 50 49 46 46 44 40 34 32 36 40
84 77 80 68 65 76 81 82 63 65 75 74 76 80 74 79 77 95 80 76 90 96 94 96 99 99 93 73 64 56 53 54 56 54 53 52 48 47 46 46 42 38 29 22
79 68 62 74 88 84 81 87 63 69 75 72 83 92 97 97 96 96 99 100 100 100 100 100 99 100 99 94 68 59 65 60 60 60 60 60 61 56 51 50 48 42 42 36
84 54 71 70 66 67 54 52 55 59 64 68 87 92 93 93 96 98 98 99 100 99 99 96 93 88 74 63 58 55 54 69 70 68 68 69 69 70 73 67 64 60 54 46
65 54 52 42 50 57 73 61 56 59 57 57 59 58 62 75 83 92 95 98 100 100 99 91 84 82 79 78 68 57 54 62 67 70 71 71 78 89 91 87 97 91 80 88
54 49 56 52 48 54 61 50 54 54 51 52 60 64 68 83 93 98 98 97 99 100 93 80 71 64 74 75 66 59 58 65 72 76 78 91 97 92 98 98 94 98 99 99
46 47 53 49 55 53 52 52 56 57 58 61 63 67 68 72 80 88 98 100 100 100 100 86 76 74 81 79 73 70 70 69 76 80 92 97 91 100 94 92 100 100 100 99
50 54 51 47 51 51 52 54 59 62 66 72 73 75 74 75 77 87 100 100 100 100 100 100 100 86 94 95 92 86 81 78 94 97 99 98 99 100 100 100 99 100 100 100
51 53 50 49 49 50 53 58 62 65 71 76 80 82 82 84 86 94 99 99 99 98 100 100 100 82 84 86 86 83 93 99 100 100 98 100 98 99 100 100 100 100 100 99
53 56 55 56 57 58 59 61 66 69 77 84 77 70 78 92 92 99 99 97 96 96 97 97 100 92 87 81 84 84 91 100 100 100 99 100 100 98 96 95 96 98 100 100
59 61 58 57 59 61 63 67 72 82 87 82 85 85 93 89 93 88 90 86 92 91 90 90 96 94 87 80 87 96 100 100 100 96 100 100 100 98 96 96 97 98 95 99
58 57 59 64 70 72 71 79 88 91 89 77 75 73 81 98 96 94 88 86 80 77 86 92 100 98 87 83 90 97 100 97 95 93 99 100 98 95 98 98 97 96 95 98
60 66 71 62 50 52 58 78 82 74 69 67 70 73 78 75 73 67 60 59 59 63 83 97 100 100 97 92 92 96 94 92 92 95 98 98 94 100 100 98 99 98 98 98
70 68 51 49 51 45 61 68 61 59 60 54 54 58 55 65 83 87 85 83 77 90 100 100 100 100 100 95 93 97 100 100 96 95 96 96 95 100 100 94 90 96 96 94
69 58 52 56 45 50 59 60 60 47 53 66 58 76 82 72 82 90 89 98 100 98 99 91 100 100 99 96 97 95 95 100 97 97 97 95 95 97 99 91 95 98 99 95
64 61 58 57 53 56 58 51 45 60 64 64 82 85 80 68 61 58 70 74 70 72 84 97 100 100 98 96 96 94 94 100 97 97 96 95 97 97 97 95 96 98 98 97
69 66 64 61 58 59 55 41 60 64 76 80 77 78 69 66 70 75 63 65 73 74 83 100 100 99 96 97 97 94 96 100 98 98 98 96 96 96 97 97 96 97 96 97
72 72 69 66 61 62 41 47 57 72 79 80 79 74 61 55 50 72 82 92 90 83 86 100 99 96 96 96 96 94 96 98 97 98 99 97 95 96 96 96 96 97 97 97
73 78 74 71 67 61 40 49 58 63 68 72 69 58 56 56 68 80 95 89 88 90 95 96 96 96 96 96 95 95 96 96 98 99 99 98 97 96 96 96 96 96 96 96
78 91 90 88 80 62 43 52 59 56 65 66 64 54 51 51 61 88 99 94 93 95 96 97 95 96 96 95 95 95 96 95 95 95 95 98 98 97 97 96 96 97 96 97
83 89 91 96 93 61 48 56 62 63 73 74 68 56 49 48 56 89 98 94 90 91 93 94 93 94 95 95 95 96 95 96 96 95 89 95 97 99 99 99 98 97 100 98
Wind_Speed
13 16 11 11 24 27 24 21 13 18 18 12 11 11 14 21 22 23 23 22 26 26 30 29 30 32 32 33 37 36 34 32 30 28 28 26 26 25 23 18 15 14 14 9
5 7 5 20 24 23 27 21 19 18 15 13 22 22 21 22 25 25 24 23 23 21 21 23 24 26 27 28 27 25 25 26 23 20 20 16 20 24 19 22 21 15 10 9
5 18 5 8 19 16 17 21 15 17 9 14 16 15 22 21 23 23 22 22 21 20 20 20 22 20 22 21 18 20 21 18 19 18 14 11 14 10 11 12 10 12 9 10
5 10 6 2 16 8 19 19 19 16 10 12 14 19 21 21 20 21 20 21 21 20 17 19 21 22 18 19 15 18 20 18 18 18 16 15 12 8 8 7 5 5 7 8
4 5 3 7 15 7 7 12 16 14 14 17 6 5 21 21 19 18 18 17 18 18 18 18 19 17 17 20 21 20 21 20 19 19 16 12 12 11 11 10 6 6 8 9
3 3 6 9 18 16 3 10 17 15 14 17 16 8 8 19 20 19 17 17 19 18 18 21 22 21 20 20 21 22 21 19 19 19 20 18 16 16 13 15 13 14 12 10
3 2 3 9 21 6 6 5 14 14 16 13 7 5 9 14 17 17 17 17 16 16 17 18 19 18 18 19 21 21 20 20 19 18 20 20 19 20 18 19 18 18 19 17
2 3 4 13 9 5 3 7 9 12 11 11 11 14 16 17 17 16 18 16 17 16 18 18 17 17 17 19 20 22 23 22 22 21 21 22 22 21 20 23 22 23 23 23
3 2 5 9 6 8 6 7 7 6 7 8 6 8 10 12 14 14 13 12 14 15 15 16 18 18 18 19 22 25 24 25 27 28 27 27 26 25 26 27 27 27 28 28
2 1 6 7 8 6 4 6 8 10 10 10 7 9 11 13 14 14 13 14 16 16 18 20 20 20 21 24 25 25 27 28 29 31 32 31 31 31 30 30 30 30 31 31
4 8 9 4 8 10 8 5 7 9 11 13 14 16 18 17 17 17 16 16 16 17 20 23 23 22 21 25 27 27 27 28 29 31 32 34 33 31 30 30 29 29 30 32
3 3 4 12 12 6 2 5 9 12 12 13 14 15 17 15 14 12 12 15 17 18 23 24 25 25 24 27 29 30 30 29 29 31 31 33 35 37 33 34 32 29 29 30
4 8 11 13 11 7 5 6 9 11 12 14 16 18 20 20 20 21 18 18 17 16 22 23 25 26 26 27 28 28 29 30 31 31 33 35 36 36 41 38 33 33 31 28
9 8 7 8 7 6 8 8 11 12 13 15 18 21 23 24 26 25 22 21 22 24 25 24 26 24 25 26 25 26 26 27 28 31 34 37 38 37 37 39 38 36 33 29
8 6 6 7 6 7 8 11 13 14 15 17 19 22 23 23 25 25 22 23 25 26 25 25 28 25 29 29 28 28 27 27 27 30 32 35 36 33 34 36 34 34 33 31
5 5 4 5 7 10 12 14 15 16 15 19 21 23 23 21 23 21 21 22 24 26 25 25 28 28 32 30 29 29 29 29 29 29 31 32 32 32 34 34 34 32 32 31
7 6 6 7 9 11 12 14 14 15 17 19 21 21 21 22 22 24 25 24 22 25 24 25 25 28 29 29 26 26 26 27 28 30 31 30 32 32 32 31 31 30 30 26
7 6 5 6 8 12 13 14 15 16 20 21 22 24 24 23 26 26 26 26 24 25 24 23 26 30 28 26 25 23 23 25 27 30 30 29 30 28 28 28 27 25 23 21
6 5 6 8 10 12 13 12 13 15 19 21 22 22 22 24 26 28 29 28 27 26 26 24 26 27 29 25 23 23 21 23 25 26 27 27 29 27 26 25 23 21 19 15
6 6 7 9 12 12 11 12 15 17 18 21 22 22 22 21 22 23 22 22 20 19 19 20 25 25 27 24 23 22 22 23 23 25 27 27 28 28 26 26 24 22 19 14
8 7 8 10 10 10 12 16 18 18 16 17 15 12 17 22 20 19 20 19 17 17 21 22 20 23 26 24 22 22 22 22 22 23 25 27 28 27 24 25 22 20 18 15
10 10 9 9 9 11 13 16 13 13 14 13 12 15 18 21 23 23 19 18 22 21 21 19 19 22 23 20 21 24 22 21 21 20 23 23 25 25 24 23 21 19 17 14
14 12 10 9 10 11 15 12 11 10 10 13 15 16 19 20 19 21 24 25 26 22 18 15 17 21 19 19 21 24 21 19 19 19 19 21 22 23 22 22 19 17 15 12
17 15 12 11 10 12 13 10 9 9 10 10 12 15 19 21 21 21 25 25 21 16 14 13 17 19 16 18 20 22 22 19 19 18 18 17 19 20 21 21 20 20 18 17
20 16 14 11 11 12 11 9 7 7 6 7 11 14 15 17 20 22 20 19 16 15 14 15 17 17 16 18 19 21 21 20 19 17 16 16 16 18 18 18 18 19 18 18
21 20 17 16 11 11 9 8 8 8 6 8 11 15 16 17 18 19 16 15 14 14 14 16 19 18 17 18 18 19 20 21 22 21 17 14 14 13 14 16 16 16 17 18
20 19 20 17 11 10 8 8 7 7 6 8 12 15 16 17 16 15 14 12 13 14 13 13 16 19 19 21 21 20 21 22 21 22 21 16 14 12 12 12 12 13 13 14
Wind_Direction
272 287 329 344 6 13 20 21 53 57 48 30 61 40 41 40 45 48 49 47 54 55 49 43 47 50 48 50 47 46 48 49 54 57 48 48 58 56 65 69 71 80 60 93
298 335 314 23 11 21 24 21 41 49 51 44 55 51 50 46 45 48 48 45 45 44 44 41 37 37 37 40 42 43 48 56 50 44 40 38 35 39 44 55 61 59 55 40
300 337 92 4 3 23 33 24 18 44 30 32 42 41 36 40 42 39 36 37 37 39 34 31 33 30 33 33 22 33 38 28 36 34 39 37 48 16 13 35 40 67 65 44
297 342 55 166 12 23 57 27 17 27 35 58 55 52 41 32 35 37 32 26 25 27 30 27 27 28 23 26 19 25 24 19 17 11 4 9 13 2 18 7 340 351 8 35
338 340 313 16 1 357 47 37 16 15 11 14 251 344 31 19 23 22 17 11 13 13 13 21 32 33 18 18 18 18 21 17 14 2 357 355 354 321 335 314 333 323 284 273
357 20 6 356 337 341 297 45 4 8 13 2 21 27 8 358 6 10 13 14 15 16 19 22 24 23 22 23 19 17 16 11 5 352 351 351 344 335 331 307 305 291 282 286
12 24 286 331 341 343 51 353 339 5 10 13 40 34 340 0 9 7 6 10 16 16 15 15 15 14 12 11 10 7 2 0 350 352 346 339 332 330 321 311 301 288 280 271
339 4 351 1 354 42 295 319 355 16 19 8 5 0 4 6 8 5 4 6 8 7 7 4 8 9 9 6 1 360 354 352 349 349 342 334 329 321 313 306 297 293 287 280
228 252 254 303 278 313 300 312 350 16 11 13 14 8 355 357 359 3 1 2 2 4 2 1 359 2 3 356 352 349 349 349 346 344 342 340 334 326 321 313 307 299 293 283
322 237 256 275 276 277 307 330 347 355 356 1 10 6 3 0 1 3 5 1 360 358 357 360 359 0 359 354 349 342 341 341 342 343 341 337 334 331 327 318 313 309 300 292
259 286 314 324 333 325 254 320 350 356 355 358 359 2 2 3 2 358 356 355 353 352 353 352 355 356 355 351 344 339 337 336 338 337 335 333 329 325 319 315 311 306 298 291
250 296 277 295 323 330 262 311 341 350 354 356 354 352 352 352 353 350 349 350 347 347 348 352 351 350 349 346 342 337 334 333 334 334 334 331 327 322 320 321 317 305 297 288
249 294 302 304 292 273 274 308 333 339 341 342 345 344 345 343 346 346 345 346 341 341 343 344 345 350 349 342 340 338 333 331 331 332 332 331 328 325 322 319 310 307 305 294
271 295 305 300 281 275 282 300 316 324 330 333 336 339 339 339 340 340 339 337 337 337 335 337 338 342 346 343 337 334 333 331 332 332 330 328 326 321 317 312 306 307 307 301
253 267 291 308 305 286 290 300 307 314 321 328 332 334 334 332 334 333 331 335 330 329 329 331 331 337 343 340 335 335 337 338 333 329 328 327 326 322 316 312 307 304 306 305
218 240 262 285 300 301 296 296 297 305 316 326 331 335 331 327 333 327 328 330 331 330 331 328 327 333 338 337 335 335 338 339 340 334 333 328 326 325 324 321 316 309 303 302
213 237 268 292 306 312 311 309 308 313 320 325 324 324 323 326 323 321 324 331 324 324 329 330 326 329 332 336 335 335 337 337 338 338 338 332 329 328 324 321 316 312 304 300
228 255 279 296 310 316 316 313 311 312 317 321 318 319 317 314 315 319 320 321 317 322 318 325 327 325 327 335 336 336 339 337 338 338 339 336 333 330 325 322 321 315 302 292
228 261 293 314 322 322 321 320 319 318 317 319 322 325 326 323 320 315 313 313 314 320 329 322 325 332 334 337 337 338 338 336 337 339 342 340 340 338 330 329 327 325 315 296
251 282 309 324 329 331 330 324 324 326 326 322 321 322 327 337 345 341 332 321 321 323 322 326 329 331 338 338 342 345 344 341 343 346 348 346 347 344 339 341 339 335 331 321
259 282 304 323 331 331 326 325 326 331 343 345 351 358 349 343 348 356 355 347 341 333 323 324 328 333 339 339 344 346 346 347 350 353 354 356 356 354 349 348 343 339 339 342
259 274 291 312 325 327 324 325 328 333 338 351 353 347 340 342 344 343 347 344 337 331 327 338 335 337 338 340 347 347 345 349 351 353 1 1 2 4 5 360 355 350 349 345
260 268 285 302 313 321 327 325 324 328 341 345 347 343 344 342 348 344 343 342 334 332 331 338 336 340 343 346 347 349 348 350 354 357 1 8 10 15 17 17 19 18 13 7
263 266 275 285 301 317 323 318 320 325 332 337 341 342 342 344 352 351 344 345 347 349 351 350 345 348 346 348 350 353 357 358 356 0 6 11 17 22 26 27 31 36 43 52
263 260 265 275 291 309 312 310 313 318 326 342 345 351 352 352 348 353 356 2 15 15 12 6 1 358 357 355 357 359 4 6 3 2 5 12 15 22 32 37 40 43 47 52
262 261 263 270 274 295 297 295 302 314 328 345 352 352 355 356 356 359 8 12 20 23 20 15 11 9 7 5 5 8 8 7 7 8 6 8 13 16 22 34 43 48 52 52
264 252 249 258 258 280 278 283 295 304 319 337 348 350 351 353 355 2 10 18 21 23 19 18 18 21 20 19 17 16 15 14 14 14 16 18 15 15 16 18 27 34 42 50